Location: Observatorio del Centro Ecologico de Sonora
(29.0667°N, 110.9333°W)
Time: 00:27:05
(UTC-07:00)

ISS - Visible Passes

Search period start: 20 September 2017 00:00
Search period end: 30 September 2017 00:00
Orbit: 401 x 407 km, 51.6° (Epoch: 20 September)

Date Brightness Start Highest point End Pass type
(mag) Time Alt. Az. Time Alt. Az. Time Alt. Az.
20 Sep -1.1 04:32:28 11° N 04:34:37 18° NE 04:36:59 10° E visible
21 Sep -3.9 05:16:03 13° NW 05:18:51 69° SW 05:22:06 10° SE visible
22 Sep -2.6 04:27:06 41° E 04:27:06 41° E 04:29:42 10° ESE visible
22 Sep -3.0 19:22:22 10° SSW 19:25:14 30° SE 19:25:14 30° SE visible
23 Sep -2.2 05:11:02 20° SW 05:11:02 20° SW 05:12:59 10° S visible
23 Sep -2.0 20:06:17 10° WSW 20:08:54 31° WNW 20:08:54 31° WNW visible
24 Sep -3.8 19:13:37 10° SW 19:16:52 78° NW 19:19:36 14° NE visible
25 Sep -0.9 19:59:22 10° WNW 20:01:08 14° NW 20:02:46 10° N visible
26 Sep -1.7 19:05:48 10° W 19:08:35 25° NW 19:11:23 10° NNE visible
28 Sep -0.8 18:59:21 10° NW 19:00:26 11° NW 19:01:30 10° NNW visible
